Regional Weather Roundup
Issued by NWS Bismarck, ND

Home | Current Version | Previous Version | Text Only | Print | Product List | Glossary On
Versions: 1 2 3 4 5 6 7 8 9 10 11 12 13 14 15 16 17 18 19 20 21 22 23 24 25 26 27 28 29 30 31 32 33 34 35 36 37 38 39 40 41 42 43 44 45 46 47 48 49 50
054
ASUS43 KBIS 282210
RWRBIS

NWR BROADCAST TEXT
NATIONAL WEATHER SERVICE BISMARCK ND
500 PM CDT SUN MAY 28 2017

NOTE: "FAIR" INDICATES FEW OR NO CLOUDS BELOW 12,000 FEET WITH NO
SIGNIFICANT WEATHER AND/OR OBSTRUCTIONS TO VISIBILITY.


CITY           SKY/WX    TMP DP  RH WIND       PRES   REMARKS
WILLISTON      PTSUNNY   70  33  25 NW25G33   29.99S
MINOT          CLOUDY    66  39  37 NW28      29.88S
MINOT AFB      FAIR      65  40  40 N30G41    29.87S
BISMARCK       FAIR      73  34  23 NW23G45   29.86R
DICKINSON      FAIR      70  28  21 NW25G40   29.94R
GARRISON         N/A     66  36  32 N38G46    29.89R
HETTINGER ARPT FAIR      73  33  23 NW33G40   29.96R
JAMESTOWN      CLOUDY    61  47  59 NW32G40   29.80R
HAZEN          FAIR      70  34  26 NW25G41   29.92R
LINTON         FAIR      70  45  40 N22G44    29.86R
MANDAN         FAIR      72  36  26 N32G40    29.87R
STANLEY        FAIR      66  36  32 NW20G33   29.95S
TIOGA          MOCLDY    66  34  30 N30G36    29.97S
WATFORD CITY   FAIR      68  34  28 NW25G36   29.96S
$$

CITY           SKY/WX    TMP DP  RH WIND       PRES   REMARKS
GRAND FORKS    PTSUNNY   62  50  64 N12       29.71F
GRAND FORKS AF PTSUNNY   62  47  59 N22G31    29.73R
DEVILS LAKE    CLOUDY    58  44  60 NW25G37   29.80R
FARGO          FAIR      65  49  56 NW15      29.74R
CAVALIER       CLOUDY    55  48  76 NW18G26   29.74R
GRAFTON        MOCLDY    55  50  82 N20G29    29.75R
GWINNER        MOCLDY    55  48  76 MISG      29.84R
LANGDON        CLOUDY    54  50  87 NW20      29.78R
ROLLA          RAIN      52  50  93 N20G30    29.84R
$$

CITY           SKY/WX    TMP DP  RH WIND       PRES   REMARKS
ABERDEEN       FAIR      64  47  53 N15       29.84R
MOBRIDGE       FAIR      74  37  26 NW21G28   29.82F
BUFFALO          N/A     75  37  25 NW25G41   29.92F
RAPID CITY     PTSUNNY   73  38  27 NW35G51   30.04R
GLASGOW        FAIR      74  27  17 NW23G37   30.08S
SIDNEY         FAIR      73  31  21 N24G32    30.00S
WOLF POINT     FAIR      75  31  19 NW21G36   30.04F
GLENDIVE       FAIR      73  31  21 N24G35    30.03R
MILES CITY     FAIR      77  29  17 N26G32    30.05S
BAKER          FAIR      74  31  20 NW30G39   30.02S
$$

CITY           SKY/WX    TMP DP  RH WIND       PRES   REMARKS
BILLINGS       PTSUNNY   71  39  31 NE12      30.19R
GREAT FALLS    FAIR      73  42  32 NE17G23   30.22S
REGINA         PTSUNNY   63  36  36 NW35G46   30.01S
ESTEVAN        PTSUNNY   59  39  47 N35G40    29.95S
$$





USA.gov is the U.S. government's official web portal to all federal, state and local government web resources and services.